CAPE
0 0 0 0 0 0 0 0 0 0 0 0 0 0 0 0 0 0 0 0 0 0
0 0 0 0 0 0 0 0 0 0 0 0 0 0 0 0 0 0 0 0 0 0
0 0 0 0 0 0 0 0 0 0 0 0 0 0 0 0 0 0 0 0 0 0
0 0 0 0 0 0 0 0 0 0 0 0 0 0 0 0 0 0 0 0 0 0
0 0 0 0 0 0 0 0 0 0 0 0 0 0 0 0 0 0 0 0 0 0
0 0 0 0 0 0 0 0 0 0 0 0 0 0 0 0 0 0 0 0 0 0
0 0 0 0 0 0 0 0 0 0 0 0 0 0 0 0 0 0 0 0 0 0
0 0 0 0 0 0 0 0 0 0 0 0 0 0 0 0 0 0 0 0 0 0
0 0 0 0 0 0 0 0 0 0 0 0 0 0 0 0 0 0 0 0 0 0
0 0 0 0 0 0 0 0 0 0 0 0 0 0 0 0 0 0 0 0 0 0
0 0 0 0 0 0 0 0 0 0 0 0 0 0 0 0 0 0 0 0 0 0
0 0 0 0 0 0 0 0 0 0 0 0 0 0 0 0 0 0 0 0 0 0
0 0 0 0 0 0 0 0 0 0 0 0 0 0 0 0 0 0 0 0 2 0
0 0 0 0 0 0 0 0 0 0 0 0 0 0 0 0 0 1 3 2 3 2
CIN
0 0 0 0 0 0 0 0 0 0 0 0 0 0 0 0 0 0 0 0 0 0
0 0 0 0 0 0 0 0 0 0 0 0 0 0 0 0 0 0 0 0 0 0
0 0 0 0 0 0 0 0 0 0 0 0 0 0 0 0 0 0 0 0 0 0
0 0 0 0 0 0 0 0 0 0 0 0 0 0 0 0 0 0 0 0 0 0
0 0 0 0 0 0 0 0 0 0 0 0 0 0 0 0 0 0 0 0 0 0
0 0 0 0 0 0 0 0 0 0 0 0 0 0 0 0 0 0 0 0 0 0
0 0 0 0 0 0 0 0 0 0 0 0 0 0 0 0 0 0 0 0 0 0
0 0 0 0 0 0 0 0 0 0 0 0 0 0 0 0 0 0 0 0 0 0
0 0 0 0 0 0 0 0 0 0 0 0 0 0 0 0 0 0 0 0 0 0
0 0 0 0 0 0 0 0 0 0 0 0 0 0 0 0 0 0 0 0 0 0
0 0 0 0 0 0 0 0 0 0 0 0 0 0 0 0 0 0 0 0 0 0
0 0 0 0 0 0 0 0 0 0 0 0 0 0 0 0 0 0 0 0 0 0
0 0 0 0 0 0 0 0 0 0 0 0 0 0 0 0 0 0 0 -1 -1 0
0 0 0 0 0 0 0 0 0 0 0 0 0 0 0 0 -1 -2 -3 -2 -2 -2
Wind_Speed
6 6 6 5 3 5 8 10 13 16 19 22 25 27 29 30 30 30 30 30 31 32
6 6 6 4 3 6 8 12 14 17 21 24 26 28 30 31 31 30 31 32 33 34
6 5 4 3 5 7 10 12 15 19 22 25 28 29 31 31 31 32 33 34 35 36
6 5 3 4 6 8 11 14 17 20 24 27 29 30 31 32 32 34 35 35 37 38
6 4 3 4 7 9 13 16 19 22 25 28 30 31 32 33 33 35 36 37 38 39
4 3 3 5 8 11 14 17 20 23 26 29 31 32 32 32 34 34 35 37 39 40
3 2 3 7 10 13 16 19 22 25 28 30 32 32 33 34 34 35 35 37 38 39
1 2 5 9 12 15 18 21 24 26 29 31 32 33 35 35 35 36 36 37 39 38
2 5 8 11 14 17 20 22 25 28 31 33 33 35 35 36 36 36 37 40 40 40
4 7 10 13 16 19 22 24 27 30 32 33 34 35 36 37 37 37 39 40 41 42
6 9 12 15 18 20 23 26 29 31 32 33 34 35 37 38 37 38 39 40 41 42
7 10 13 16 20 22 25 27 29 30 33 34 34 36 38 39 39 39 40 40 39 41
9 12 15 18 21 23 25 27 29 32 32 33 35 37 39 40 39 42 43 42 41 40
12 15 17 19 22 24 26 28 30 32 33 34 36 38 39 39 40 42 43 44 44 43
Wind_Direction
205 198 206 213 244 306 326 335 341 342 343 344 345 344 344 343 342 342 341 339 337 336
212 196 199 221 289 320 332 335 338 340 341 342 342 342 342 341 340 341 340 337 336 334
195 193 204 255 302 326 334 338 339 339 340 340 340 340 340 340 341 338 337 336 335 334
186 192 230 283 314 328 337 338 337 337 338 338 339 339 339 339 338 337 336 336 335 334
180 200 253 302 323 333 334 336 336 337 337 338 339 339 338 337 337 336 335 336 336 334
194 215 287 320 329 332 334 335 337 337 337 338 338 338 338 337 336 337 337 337 336 335
212 261 321 330 331 333 335 336 337 337 337 338 338 338 337 336 336 337 337 338 337 336
234 325 333 332 333 336 337 336 337 337 338 338 337 338 337 337 337 336 336 337 336 336
297 326 329 333 336 336 336 337 338 337 337 337 338 338 338 337 337 337 336 335 335 335
317 327 333 336 336 336 336 337 337 337 337 337 338 339 339 338 337 337 336 335 335 334
333 334 336 337 337 337 337 337 337 338 339 339 340 340 339 338 338 337 337 336 335 334
342 341 341 339 338 338 338 339 339 340 340 340 341 341 340 339 338 337 337 337 337 336
355 348 342 341 340 341 342 341 342 341 342 342 341 342 341 340 340 338 337 338 337 337
354 350 348 345 344 344 343 343 342 342 343 344 343 342 342 343 342 339 338 338 339 339